TimeEDT,TemperatureF,Dew PointF,Humidity,Sea Level PressureIn,VisibilityMPH,Wind Direction,Wind SpeedMPH,Gust SpeedMPH,PrecipitationIn,Events,Conditions,WindDirDegrees,DateUTC
12:53 AM,72.0,69.1,91,30.20,10.0,West,10.4,-,N/A,,Partly Cloudy,270,2013-07-15 04:53:00
1:53 AM,72.0,69.1,91,30.19,10.0,West,8.1,-,N/A,,Overcast,280,2013-07-15 05:53:00
2:53 AM,72.0,70.0,93,30.18,9.0,WNW,6.9,-,N/A,,Overcast,290,2013-07-15 06:53:00
3:53 AM,73.9,71.1,91,30.17,10.0,NW,8.1,-,N/A,,Partly Cloudy,320,2013-07-15 07:53:00
4:53 AM,69.1,68.0,96,30.18,6.0,Calm,Calm,-,N/A,,Clear,0,2013-07-15 08:53:00
5:53 AM,72.0,70.0,93,30.18,6.0,NNW,3.5,-,N/A,,Scattered Clouds,340,2013-07-15 09:53:00
6:53 AM,75.9,72.0,87,30.19,9.0,North,3.5,-,N/A,,Mostly Cloudy,350,2013-07-15 10:53:00
7:53 AM,81.0,73.0,77,30.19,10.0,North,3.5,-,N/A,,Scattered Clouds,350,2013-07-15 11:53:00
8:53 AM,79.0,72.0,79,30.18,10.0,South,4.6,-,N/A,,Clear,190,2013-07-15 12:53:00
9:53 AM,79.0,73.0,82,30.18,10.0,South,5.8,-,N/A,,Clear,190,2013-07-15 13:53:00
10:53 AM,77.0,71.1,82,30.17,10.0,South,4.6,-,N/A,,Clear,190,2013-07-15 14:53:00
11:53 AM,80.1,73.0,79,30.17,10.0,SSW,5.8,-,N/A,,Clear,200,2013-07-15 15:53:00
12:53 PM,81.0,72.0,74,30.16,10.0,SSW,5.8,-,N/A,,Clear,210,2013-07-15 16:53:00
1:53 PM,82.0,72.0,71,30.15,10.0,SSW,8.1,-,N/A,,Clear,200,2013-07-15 17:53:00
2:53 PM,81.0,71.1,72,30.14,10.0,SSW,9.2,-,N/A,,Clear,200,2013-07-15 18:53:00
3:53 PM,82.0,72.0,71,30.13,10.0,SW,8.1,-,N/A,,Clear,220,2013-07-15 19:53:00
4:53 PM,81.0,73.0,77,30.12,10.0,SSW,6.9,-,N/A,,Clear,210,2013-07-15 20:53:00
5:53 PM,80.1,72.0,76,30.12,10.0,SW,6.9,-,N/A,,Clear,220,2013-07-15 21:53:00
6:53 PM,75.9,72.0,87,30.12,8.0,SSW,5.8,-,N/A,,Clear,210,2013-07-15 22:53:00
7:53 PM,73.0,71.1,93,30.12,7.0,SW,3.5,-,N/A,,Clear,220,2013-07-15 23:53:00
8:53 PM,72.0,71.1,97,30.12,7.0,SW,3.5,-,N/A,,Clear,230,2013-07-16 00:53:00
9:53 PM,72.0,70.0,93,30.13,7.0,WSW,4.6,-,N/A,,Clear,240,2013-07-16 01:53:00
10:53 PM,71.1,69.1,93,30.12,5.0,SW,3.5,-,N/A,,Clear,220,2013-07-16 02:53:00
11:53 PM,71.1,70.0,96,30.12,4.0,WSW,4.6,-,N/A,,Clear,240,2013-07-16 03:53:00